SCP
-0 -0 -0 -0 -0 -0 -0 -0 -0 -0 -0 -0 -0 -0 -0 -0 -0 0 0 0 0 -0 0 0 0 0 0 0 -0 0 0 0 0 0 0 -0 0 -0 -0 -0 -0 0 0 0 -0
0 -0 -0 -0 -0 -0 -0 -0 -0 -0 -0 -0 -0 -0 -0 -0 0 0 0 0 0 -0 0 -0 -0 0 0 0 0 0 0 0 -0 0 -0 -0 -0 -0 -0 -0 -0 -0 -0 -0 -0
0 -0 -0 -0 -0 -0 -0 -0 -0 -0 -0 -0 -0 -0 -0 -0 0 0 0 -0 0 0 0 0 0 0 0 -0 -0 0 0 0 0 0 -0 -0 -0 0 -0 -0 -0 -0 -0 -0 -0
0 0 -0 -0 -0 -0 -0 -0 -0 -0 -0 -0 0 0 -0 0 0 0 0 -0 -0 0 0 -0 0 0 0 -0 -0 0 -0 0 0 -0 -0 -0 -0 0 -0 -0 -0 -0 -0 -0 0
0 0 0 -0 -0 -0 -0 -0 -0 -0 -0 0 0 0 0 0 0 -0 0 0 0 0 -0 -0 -0 0 0 0 -0 -0 0 -0 0 0 0 -0 -0 0 -0 -0 -0 -0 -0 -0 -0
0 0 0 0 0 0 0 0 0 0 -0 -0 -0 0 0 0 0 0 0 0 0 -0 -0 0 0 0 -0 -0 0 -0 -0 -0 -0 0 0 0 0 0 0 0 -0 -0 -0 -0 -0
0 0 0 0 0 0 0 0 0 0 -0 -0 -0 -0 0 0 0 0 0 0 0 0 0 0 0 0 -0 -0 -0 -0 -0 -0 0 0 -0 0 -0 0 0 -0 -0 -0 -0 -0 -0
0 0 0 0 0 0 0 0 0 0 -0 -0 -0 -0 -0 -0 -0 0 0 0 0 0 0 0 0 0 -0 -0 -0 0 -0 -0 0 -0 0 0 0 0 0 -0 -0 -0 -0 -0 -0
0 0 0 0 0 -0 -0 -0 0 0 0 -0 -0 -0 -0 -0 0 -0 0 0 0 0 0 0 0 0 -0 -0 -0 0 -0 -0 -0 -0 0 0 0 0 0 -0 0 -0 -0 -0 -0
0 0 0 0 0 -0 -0 -0 0 0 0 0 0 -0 -0 -0 -0 0 0 0 0 0 0 0 0 0 0 0 0 0 -0 -0 -0 0 -0 0 0 0 0 0 0 0 0 -0 -0
0 0 0 0 0 0 -0 0 0 0 0 0 0 0 0 -0 -0 -0 -0 0 0 0 0 0 0 -0 -0 0 0 0 0 0 -0 0 0 -0 -0 0 0 0 0 0 0 -0 -0
-0 0 0 0 0 -0 -0 0 0 0 -0 0 -0 -0 -0 -0 -0 -0 -0 -0 0 0 0 0 -0 0 -0 0 0 -0 -0 -0 0 0 0 -0 -0 -0 -0 0 0 -0 0 -0 -0
-0 0 0 0 -0 -0 -0 0 0 0 -0 -0 -0 -0 -0 -0 -0 -0 -0 -0 0 0 0 0 0 0 0 -0 0 0 -0 0 -0 -0 0 0 -0 -0 0 0 -0 0 -0 0 0
-0 0 0 0 -0 -0 0 0 0 0 -0 0 -0 0 -0 -0 -0 -0 -0 -0 0 0 0 0 0 0 0 0 0 -0 0 0 0 -0 0 -0 0 0 -0 -0 -0 -0 0 0 -0
-0 0 -0 -0 -0 -0 0 0 0 0 0 0 0 -0 -0 -0 -0 -0 -0 -0 -0 -0 0 0 0 0 0 0 0 0 -0 -0 0 0 0 0 0 0 -0 -0 -0 -0 -0 -0 0
-0 0 -0 -0 -0 0 0 -0 -0 0 -0 0 -0 -0 0 -0 -0 0 0 -0 -0 0 0 0 0 -0 -0 -0 0 0 -0 0 0 0 0 0 0 0 0 0 -0 -0 -0 0 0
-0 0 -0 -0 0 -0 0 -0 -0 0 -0 -0 0 -0 -0 -0 0 0 0 -0 0 0 0 -0 -0 0 -0 -0 0 0 0 0 0 0 0 0 0 0 0 0 -0 0 0 -0 -0
-0 -0 0 0 -0 -0 -0 -0 0 0 0 0 0 0 0 -0 -0 -0 -0 0 0 0 0 0 -0 0 -0 -0 0 0 0 0 0 0 0 0 0 -0 0 0 0 0 0 0 0
-0 0 0 -0 0 -0 -0 -0 0 0 0 -0 -0 0 0 0 -0 0 -0 -0 0 -0 -0 -0 0 -0 0 -0 -0 0 0 0 0 0 0 0 0 -0 -0 0 0 -0 0 0 0
0 0 -0 0 0 0 -0 -0 0 0 -0 0 0 0 0 0 0 0 0 0 0 0 -0 -0 0 0 -0 -0 0 -0 0 0 0 0 0 0 0 -0 -0 -0 0 0 0 0 0
0 0 0 0 0 0 -0 -0 0 0 -0 0 0 0 0 0 0 0 0 0 0 0 0 0 0 0 0 0 0 0 0 0 0 0 0 0 0 0 -0 -0 -0 0 0 0 0
0 0 0 0 0 -0 -0 -0 -0 0 -0 0 0 0 0 0 0 0 0 0 0 0 0 0 0 0 0 0 0 0 0 0 0 0 0 0 0 -0 -0 -0 -0 -0 0 -0 0
0 0 0 0 0 0 -0 -0 0 0 0 -0 0 0 0 0 0 0 0 0 0 0 0 0 0 0 0 0 0 0 0 0 0 0 0 0 0 0 -0 -0 0 -0 0 0 0
0 0 0 0 0 0 0 0 0 -0 0 0 0 0 0 0 0 0 0 0 0 0 0 0 0 0 0 0 0 0 -0 -0 -0 0 0 0 0 0 0 0 0 0 0 0 0
0 0 0 0 0 0 0 0 0 0 0 0 0 0 0 0 -0 -0 0 0 0 0 0 0 0 0 0 0 0 -0 0 0 0 0 0 0 0 0 0 0 0 -0 0 0 0
0 0 0 0 0 0 0 0 0 0 0 0 0 0 0 0 0 0 0 0 0 0 0 0 0 0 0 0 0 0 0 0 0 0 0 0 0 0 0 0 0 0 0 0 0
0 0 0 0 0 0 0 0 0 0 -0 -0 0 0 0 0 0 0 0 0 0 0 0 0 0 0 0 0 0 0 0 0 0 0 0 0 0 0 0 0 0 0 0 0 0
Wind_Speed_500mb
19 20 21 21 21 21 19 17 14 12 11 11 12 14 16 18 19 23 26 12 5 5 8 5 12 3 14 5 21 29 7 5 8 10 16 37 11 28 41 62 25 13 63 73 57
19 18 18 19 19 20 21 20 19 16 13 12 11 12 14 16 20 28 13 15 13 5 10 10 6 9 16 4 6 10 6 12 5 14 11 39 20 40 39 42 50 60 53 67 66
20 17 15 16 18 20 21 22 21 19 16 13 11 10 11 11 14 6 5 18 16 10 12 13 9 18 3 15 5 7 8 20 12 13 20 22 22 18 48 33 75 72 75 78 65
19 18 17 16 17 19 22 24 23 22 17 14 10 8 7 3 2 5 15 9 12 12 11 6 3 7 8 9 8 10 13 19 29 14 13 15 3 26 33 36 74 83 94 85 56
21 19 17 16 16 19 22 25 25 21 16 12 9 6 4 5 8 10 20 9 14 16 13 11 10 3 8 19 18 15 10 16 27 26 21 22 22 18 33 49 71 73 88 80 56
23 21 19 16 16 19 23 27 24 17 14 11 7 4 3 5 11 9 24 9 14 15 16 16 12 29 23 14 3 20 25 28 16 16 4 11 13 15 17 38 71 70 73 83 55
24 22 20 17 16 19 24 27 22 15 12 9 5 4 10 6 7 10 17 1 8 8 8 8 28 33 24 14 26 40 14 13 22 12 10 2 11 9 12 29 69 70 71 69 64
26 24 21 19 16 19 24 24 18 12 9 5 3 6 11 10 8 11 9 12 6 4 16 18 23 9 24 44 15 5 8 11 12 27 18 17 6 2 6 26 37 60 57 73 63
28 26 23 20 15 16 19 18 15 11 6 2 5 10 12 8 15 16 17 4 5 5 11 14 16 7 40 14 8 6 6 6 10 36 10 9 8 10 8 15 9 16 61 63 68
30 26 23 20 15 12 13 15 12 12 10 11 19 15 10 3 12 8 9 9 7 12 9 3 2 5 4 7 10 11 9 9 8 13 4 10 9 4 10 6 7 7 21 56 68
31 28 23 19 15 6 8 15 17 5 16 26 35 28 27 12 13 11 8 9 7 4 2 6 8 12 18 17 11 11 6 10 4 9 9 12 11 13 15 20 17 18 3 44 46
35 29 21 17 13 9 9 13 10 16 20 43 39 43 30 18 8 12 20 9 6 11 4 10 11 25 17 15 23 19 14 9 6 5 4 5 14 12 20 19 33 19 16 14 31
36 29 22 15 9 9 12 9 20 24 10 35 27 27 20 26 15 23 28 12 9 4 9 13 21 15 23 27 24 15 20 10 6 10 11 6 10 9 10 23 42 35 34 26 26
39 30 23 9 6 13 7 22 19 18 9 13 6 18 36 13 9 31 32 10 3 12 11 12 30 19 16 21 24 13 21 25 17 11 9 18 8 10 14 18 21 46 50 35 36
42 32 22 8 7 8 20 17 12 13 5 9 8 12 11 15 20 23 20 16 9 13 7 19 10 4 8 10 13 12 33 32 25 18 8 6 4 9 15 16 26 46 49 50 39
42 32 19 15 18 5 10 13 13 10 8 7 16 14 8 15 12 26 15 16 14 8 4 16 16 6 7 5 4 15 18 8 7 8 5 9 14 6 7 7 12 35 50 52 55
40 30 18 19 14 3 9 11 9 5 11 9 13 10 13 9 10 14 11 7 7 6 6 12 12 10 7 4 13 13 12 6 1 3 12 13 13 8 11 4 9 27 53 61 62
37 23 19 16 18 2 11 9 2 11 13 8 10 10 14 14 12 15 11 6 11 8 4 4 19 9 12 16 14 5 14 10 9 7 11 8 2 8 12 6 5 21 37 52 60
36 24 18 11 25 10 5 5 12 8 11 8 12 3 9 3 9 10 17 13 11 17 13 4 9 13 1 9 16 7 1 13 6 3 7 5 5 12 10 9 19 39 27 66 78
40 25 10 15 28 15 7 10 9 7 17 11 8 2 7 10 9 6 4 7 7 7 15 5 6 6 12 7 7 11 6 4 6 3 4 4 4 6 8 7 9 9 9 35 59
32 16 15 26 25 11 5 13 11 27 31 4 1 5 6 8 4 3 6 5 8 9 21 6 6 13 10 15 5 13 10 9 10 7 7 2 10 12 11 8 15 15 13 31 52
18 7 23 39 7 6 6 10 9 22 66 14 3 8 4 4 8 9 7 5 10 7 6 7 9 5 2 14 29 13 7 9 9 6 4 7 10 3 14 18 21 24 15 14 37
38 14 20 44 5 5 12 15 25 25 16 14 5 6 7 5 6 1 0 15 13 7 7 2 5 6 17 8 13 17 6 4 7 6 4 8 10 5 10 19 13 10 8 23 32
15 7 10 38 22 5 10 14 14 26 25 10 10 7 9 7 2 7 4 7 15 18 14 11 6 9 10 7 4 5 4 5 10 6 7 9 6 7 13 10 16 8 4 23 35
5 6 15 8 9 13 1 10 23 24 12 26 5 8 9 4 5 7 6 9 14 11 8 10 7 8 8 11 7 5 3 5 6 9 11 10 5 10 6 3 6 10 9 13 20
8 10 16 28 27 12 3 10 10 29 10 20 9 15 13 11 12 2 14 6 5 7 3 5 6 9 8 1 5 6 10 8 10 6 11 11 8 11 4 6 15 26 20 21 26
11 14 10 14 12 8 5 12 26 26 30 31 26 11 5 19 25 25 16 11 9 13 8 9 13 7 7 5 7 9 3 6 4 4 4 10 4 7 4 6 8 21 17 22 16
Wind_Direction_500mb
20 21 23 25 23 24 23 12 0 342 317 292 277 274 271 272 272 267 259 239 207 279 330 209 207 224 305 276 146 125 119 31 329 323 331 359 69 137 135 142 141 161 150 152 157
17 19 21 20 18 16 14 10 359 344 327 307 288 281 279 280 278 265 264 238 235 270 302 286 263 307 304 138 101 109 81 179 216 283 307 321 283 139 137 136 111 125 135 152 153
10 11 15 13 7 9 7 4 356 344 329 317 303 284 292 295 304 313 282 227 255 267 285 261 287 310 217 86 40 55 168 159 179 283 338 308 72 300 141 140 144 146 143 153 162
2 3 3 1 359 359 357 355 348 339 331 323 311 299 305 275 196 13 353 256 246 254 249 219 254 303 136 95 56 84 97 164 169 168 293 308 162 191 163 160 156 157 156 163 170
355 355 353 348 347 349 349 348 343 339 338 329 318 315 303 263 276 344 321 277 241 231 205 201 300 270 100 113 111 99 141 129 145 167 218 306 319 141 137 142 162 155 153 168 167
353 350 347 340 336 338 342 342 340 337 343 343 334 316 249 287 358 347 328 264 210 209 196 224 314 328 131 130 141 140 142 134 154 149 138 360 83 103 123 146 167 160 159 172 178
350 346 343 337 328 331 338 342 342 339 336 340 343 296 244 237 324 327 344 267 201 180 195 301 319 307 128 123 117 135 118 151 176 165 148 284 317 122 106 191 162 168 169 177 177
348 344 341 333 326 329 338 345 344 347 342 342 351 321 260 289 249 276 317 96 97 305 309 322 323 346 98 119 73 103 149 179 187 183 184 180 222 193 98 164 173 162 161 166 186
347 344 337 330 323 326 336 348 350 354 41 32 328 332 288 278 274 209 230 251 0 320 283 292 319 72 129 104 47 359 260 209 184 200 139 174 196 202 186 117 115 181 174 170 178
346 343 335 326 317 323 337 343 330 314 302 293 269 308 240 226 156 174 199 250 278 267 293 241 85 62 35 100 186 174 214 260 221 170 274 153 228 173 209 213 116 61 135 171 183
348 341 334 324 309 298 339 350 349 319 282 262 281 264 293 162 174 182 203 164 216 226 194 303 73 217 226 197 185 145 217 207 213 165 162 204 182 209 213 221 212 179 165 175 176
346 338 331 317 291 259 330 349 353 323 311 304 294 272 256 193 154 208 198 210 207 215 123 4 236 246 233 208 151 159 193 227 322 159 165 187 238 216 179 225 221 200 213 187 180
343 335 329 311 264 232 255 340 337 322 295 300 258 246 212 208 202 213 198 205 219 239 216 177 238 226 236 264 174 196 184 174 229 146 200 77 282 195 216 224 225 216 212 198 215
342 334 328 303 206 218 309 17 355 347 43 277 222 248 220 204 256 219 204 186 227 221 235 220 258 229 254 256 177 178 196 196 172 140 214 152 271 234 192 209 208 228 217 211 222
340 330 321 254 203 217 321 343 337 327 9 212 205 204 188 175 159 199 193 191 234 275 81 263 267 285 258 214 154 213 165 191 185 176 115 214 10 281 141 229 221 219 223 216 216
339 324 309 268 225 322 326 319 333 49 261 219 163 197 157 187 208 162 180 220 273 278 269 242 271 204 230 302 129 141 189 108 114 75 351 213 180 297 195 231 222 223 233 221 217
339 319 295 261 206 236 312 339 44 147 314 182 203 175 185 217 180 172 187 187 168 59 320 329 286 273 239 353 343 74 68 360 14 108 227 220 133 236 277 171 244 223 215 221 222
338 317 291 252 185 207 320 55 99 259 264 246 169 185 171 167 215 194 145 236 254 123 53 218 318 209 185 184 195 139 143 159 212 206 245 261 182 278 296 17 312 360 230 217 223
339 319 293 195 181 192 357 88 211 236 294 13 1 58 313 179 126 183 192 214 238 167 170 120 295 332 240 157 132 274 169 186 150 109 82 281 9 282 307 40 40 2 228 212 219
341 328 246 163 176 195 79 241 252 260 325 44 55 26 331 185 156 118 231 236 93 99 172 185 2 298 289 131 240 149 181 38 16 181 190 296 307 248 297 317 332 20 307 222 216
338 332 138 158 154 152 183 237 284 292 313 106 57 333 8 5 185 13 204 342 73 30 62 70 89 296 19 11 12 16 10 19 107 92 150 151 274 222 230 294 297 302 312 220 212
360 333 166 169 136 183 193 222 306 314 313 278 199 211 110 45 17 36 95 107 59 73 66 327 125 45 189 113 89 85 73 107 102 304 111 143 261 276 222 242 271 303 325 197 216
335 286 191 189 174 250 290 287 281 286 290 261 179 88 69 75 39 127 190 178 138 93 134 333 16 24 348 11 9 66 22 63 128 82 232 150 259 329 323 291 8 331 8 164 191
328 342 311 214 240 100 4 295 290 295 305 203 153 124 56 354 119 267 270 203 158 131 144 106 95 142 184 202 182 55 113 147 115 119 185 232 253 358 356 32 48 42 90 175 203
290 274 4 322 326 327 153 274 294 287 265 318 125 158 185 219 300 228 93 45 79 180 124 103 111 119 149 144 132 188 214 129 153 193 165 226 209 233 249 311 122 110 97 119 146
323 358 345 301 294 320 278 263 266 289 244 293 144 212 208 166 174 69 106 55 145 349 63 41 181 143 160 110 55 263 236 201 223 221 261 260 245 257 291 283 95 98 135 126 124
301 312 270 276 312 329 243 359 322 343 313 262 225 195 213 176 141 123 103 139 164 167 192 143 139 122 215 325 320 323 205 169 241 80 192 207 275 241 266 354 51 97 112 126 136
Wind_Speed_850mb
19 20 21 21 21 21 19 17 14 12 11 11 12 14 16 18 19 23 26 12 5 5 8 5 12 3 14 5 21 29 7 5 8 10 16 37 11 28 41 62 25 13 63 73 57
19 18 18 19 19 20 21 20 19 16 13 12 11 12 14 16 20 28 13 15 13 5 10 10 6 9 16 4 6 10 6 12 5 14 11 39 20 40 39 42 50 60 53 67 66
20 17 15 16 18 20 21 22 21 19 16 13 11 10 11 11 14 6 5 18 16 10 12 13 9 18 3 15 5 7 8 20 12 13 20 22 22 18 48 33 75 72 75 78 65
19 18 17 16 17 19 22 24 23 22 17 14 10 8 7 3 2 5 15 9 12 12 11 6 3 7 8 9 8 10 13 19 29 14 13 15 3 26 33 36 74 83 94 85 56
21 19 17 16 16 19 22 25 25 21 16 12 9 6 4 5 8 10 20 9 14 16 13 11 10 3 8 19 18 15 10 16 27 26 21 22 22 18 33 49 71 73 88 80 56
23 21 19 16 16 19 23 27 24 17 14 11 7 4 3 5 11 9 24 9 14 15 16 16 12 29 23 14 3 20 25 28 16 16 4 11 13 15 17 38 71 70 73 83 55
24 22 20 17 16 19 24 27 22 15 12 9 5 4 10 6 7 10 17 1 8 8 8 8 28 33 24 14 26 40 14 13 22 12 10 2 11 9 12 29 69 70 71 69 64
26 24 21 19 16 19 24 24 18 12 9 5 3 6 11 10 8 11 9 12 6 4 16 18 23 9 24 44 15 5 8 11 12 27 18 17 6 2 6 26 37 60 57 73 63
28 26 23 20 15 16 19 18 15 11 6 2 5 10 12 8 15 16 17 4 5 5 11 14 16 7 40 14 8 6 6 6 10 36 10 9 8 10 8 15 9 16 61 63 68
30 26 23 20 15 12 13 15 12 12 10 11 19 15 10 3 12 8 9 9 7 12 9 3 2 5 4 7 10 11 9 9 8 13 4 10 9 4 10 6 7 7 21 56 68
31 28 23 19 15 6 8 15 17 5 16 26 35 28 27 12 13 11 8 9 7 4 2 6 8 12 18 17 11 11 6 10 4 9 9 12 11 13 15 20 17 18 3 44 46
35 29 21 17 13 9 9 13 10 16 20 43 39 43 30 18 8 12 20 9 6 11 4 10 11 25 17 15 23 19 14 9 6 5 4 5 14 12 20 19 33 19 16 14 31
36 29 22 15 9 9 12 9 20 24 10 35 27 27 20 26 15 23 28 12 9 4 9 13 21 15 23 27 24 15 20 10 6 10 11 6 10 9 10 23 42 35 34 26 26
39 30 23 9 6 13 7 22 19 18 9 13 6 18 36 13 9 31 32 10 3 12 11 12 30 19 16 21 24 13 21 25 17 11 9 18 8 10 14 18 21 46 50 35 36
42 32 22 8 7 8 20 17 12 13 5 9 8 12 11 15 20 23 20 16 9 13 7 19 10 4 8 10 13 12 33 32 25 18 8 6 4 9 15 16 26 46 49 50 39
42 32 19 15 18 5 10 13 13 10 8 7 16 14 8 15 12 26 15 16 14 8 4 16 16 6 7 5 4 15 18 8 7 8 5 9 14 6 7 7 12 35 50 52 55
40 30 18 19 14 3 9 11 9 5 11 9 13 10 13 9 10 14 11 7 7 6 6 12 12 10 7 4 13 13 12 6 1 3 12 13 13 8 11 4 9 27 53 61 62
37 23 19 16 18 2 11 9 2 11 13 8 10 10 14 14 12 15 11 6 11 8 4 4 19 9 12 16 14 5 14 10 9 7 11 8 2 8 12 6 5 21 37 52 60
36 24 18 11 25 10 5 5 12 8 11 8 12 3 9 3 9 10 17 13 11 17 13 4 9 13 1 9 16 7 1 13 6 3 7 5 5 12 10 9 19 39 27 66 78
40 25 10 15 28 15 7 10 9 7 17 11 8 2 7 10 9 6 4 7 7 7 15 5 6 6 12 7 7 11 6 4 6 3 4 4 4 6 8 7 9 9 9 35 59
32 16 15 26 25 11 5 13 11 27 31 4 1 5 6 8 4 3 6 5 8 9 21 6 6 13 10 15 5 13 10 9 10 7 7 2 10 12 11 8 15 15 13 31 52
18 7 23 39 7 6 6 10 9 22 66 14 3 8 4 4 8 9 7 5 10 7 6 7 9 5 2 14 29 13 7 9 9 6 4 7 10 3 14 18 21 24 15 14 37
38 14 20 44 5 5 12 15 25 25 16 14 5 6 7 5 6 1 0 15 13 7 7 2 5 6 17 8 13 17 6 4 7 6 4 8 10 5 10 19 13 10 8 23 32
15 7 10 38 22 5 10 14 14 26 25 10 10 7 9 7 2 7 4 7 15 18 14 11 6 9 10 7 4 5 4 5 10 6 7 9 6 7 13 10 16 8 4 23 35
5 6 15 8 9 13 1 10 23 24 12 26 5 8 9 4 5 7 6 9 14 11 8 10 7 8 8 11 7 5 3 5 6 9 11 10 5 10 6 3 6 10 9 13 20
8 10 16 28 27 12 3 10 10 29 10 20 9 15 13 11 12 2 14 6 5 7 3 5 6 9 8 1 5 6 10 8 10 6 11 11 8 11 4 6 15 26 20 21 26
11 14 10 14 12 8 5 12 26 26 30 31 26 11 5 19 25 25 16 11 9 13 8 9 13 7 7 5 7 9 3 6 4 4 4 10 4 7 4 6 8 21 17 22 16
Wind_Direction_850mb
20 21 23 25 23 24 23 12 0 342 317 292 277 274 271 272 272 267 259 239 207 279 330 209 207 224 305 276 146 125 119 31 329 323 331 359 69 137 135 142 141 161 150 152 157
17 19 21 20 18 16 14 10 359 344 327 307 288 281 279 280 278 265 264 238 235 270 302 286 263 307 304 138 101 109 81 179 216 283 307 321 283 139 137 136 111 125 135 152 153
10 11 15 13 7 9 7 4 356 344 329 317 303 284 292 295 304 313 282 227 255 267 285 261 287 310 217 86 40 55 168 159 179 283 338 308 72 300 141 140 144 146 143 153 162
2 3 3 1 359 359 357 355 348 339 331 323 311 299 305 275 196 13 353 256 246 254 249 219 254 303 136 95 56 84 97 164 169 168 293 308 162 191 163 160 156 157 156 163 170
355 355 353 348 347 349 349 348 343 339 338 329 318 315 303 263 276 344 321 277 241 231 205 201 300 270 100 113 111 99 141 129 145 167 218 306 319 141 137 142 162 155 153 168 167
353 350 347 340 336 338 342 342 340 337 343 343 334 316 249 287 358 347 328 264 210 209 196 224 314 328 131 130 141 140 142 134 154 149 138 360 83 103 123 146 167 160 159 172 178
350 346 343 337 328 331 338 342 342 339 336 340 343 296 244 237 324 327 344 267 201 180 195 301 319 307 128 123 117 135 118 151 176 165 148 284 317 122 106 191 162 168 169 177 177
348 344 341 333 326 329 338 345 344 347 342 342 351 321 260 289 249 276 317 96 97 305 309 322 323 346 98 119 73 103 149 179 187 183 184 180 222 193 98 164 173 162 161 166 186
347 344 337 330 323 326 336 348 350 354 41 32 328 332 288 278 274 209 230 251 0 320 283 292 319 72 129 104 47 359 260 209 184 200 139 174 196 202 186 117 115 181 174 170 178
346 343 335 326 317 323 337 343 330 314 302 293 269 308 240 226 156 174 199 250 278 267 293 241 85 62 35 100 186 174 214 260 221 170 274 153 228 173 209 213 116 61 135 171 183
348 341 334 324 309 298 339 350 349 319 282 262 281 264 293 162 174 182 203 164 216 226 194 303 73 217 226 197 185 145 217 207 213 165 162 204 182 209 213 221 212 179 165 175 176
346 338 331 317 291 259 330 349 353 323 311 304 294 272 256 193 154 208 198 210 207 215 123 4 236 246 233 208 151 159 193 227 322 159 165 187 238 216 179 225 221 200 213 187 180
343 335 329 311 264 232 255 340 337 322 295 300 258 246 212 208 202 213 198 205 219 239 216 177 238 226 236 264 174 196 184 174 229 146 200 77 282 195 216 224 225 216 212 198 215
342 334 328 303 206 218 309 17 355 347 43 277 222 248 220 204 256 219 204 186 227 221 235 220 258 229 254 256 177 178 196 196 172 140 214 152 271 234 192 209 208 228 217 211 222
340 330 321 254 203 217 321 343 337 327 9 212 205 204 188 175 159 199 193 191 234 275 81 263 267 285 258 214 154 213 165 191 185 176 115 214 10 281 141 229 221 219 223 216 216
339 324 309 268 225 322 326 319 333 49 261 219 163 197 157 187 208 162 180 220 273 278 269 242 271 204 230 302 129 141 189 108 114 75 351 213 180 297 195 231 222 223 233 221 217
339 319 295 261 206 236 312 339 44 147 314 182 203 175 185 217 180 172 187 187 168 59 320 329 286 273 239 353 343 74 68 360 14 108 227 220 133 236 277 171 244 223 215 221 222
338 317 291 252 185 207 320 55 99 259 264 246 169 185 171 167 215 194 145 236 254 123 53 218 318 209 185 184 195 139 143 159 212 206 245 261 182 278 296 17 312 360 230 217 223
339 319 293 195 181 192 357 88 211 236 294 13 1 58 313 179 126 183 192 214 238 167 170 120 295 332 240 157 132 274 169 186 150 109 82 281 9 282 307 40 40 2 228 212 219
341 328 246 163 176 195 79 241 252 260 325 44 55 26 331 185 156 118 231 236 93 99 172 185 2 298 289 131 240 149 181 38 16 181 190 296 307 248 297 317 332 20 307 222 216
338 332 138 158 154 152 183 237 284 292 313 106 57 333 8 5 185 13 204 342 73 30 62 70 89 296 19 11 12 16 10 19 107 92 150 151 274 222 230 294 297 302 312 220 212
360 333 166 169 136 183 193 222 306 314 313 278 199 211 110 45 17 36 95 107 59 73 66 327 125 45 189 113 89 85 73 107 102 304 111 143 261 276 222 242 271 303 325 197 216
335 286 191 189 174 250 290 287 281 286 290 261 179 88 69 75 39 127 190 178 138 93 134 333 16 24 348 11 9 66 22 63 128 82 232 150 259 329 323 291 8 331 8 164 191
328 342 311 214 240 100 4 295 290 295 305 203 153 124 56 354 119 267 270 203 158 131 144 106 95 142 184 202 182 55 113 147 115 119 185 232 253 358 356 32 48 42 90 175 203
290 274 4 322 326 327 153 274 294 287 265 318 125 158 185 219 300 228 93 45 79 180 124 103 111 119 149 144 132 188 214 129 153 193 165 226 209 233 249 311 122 110 97 119 146
323 358 345 301 294 320 278 263 266 289 244 293 144 212 208 166 174 69 106 55 145 349 63 41 181 143 160 110 55 263 236 201 223 221 261 260 245 257 291 283 95 98 135 126 124
301 312 270 276 312 329 243 359 322 343 313 262 225 195 213 176 141 123 103 139 164 167 192 143 139 122 215 325 320 323 205 169 241 80 192 207 275 241 266 354 51 97 112 126 136